Time,TemperatureF,DewpointF,PressureIn,WindDirection,WindDirectionDegrees,WindSpeedMPH,WindSpeedGustMPH,Humidity,HourlyPrecipIn,Conditions,Clouds,dailyrainin,SoftwareType,DateUTC
2013-11-04 07:00:00,80.1,72.2,29.84,ESE,102,7.0,7.0,77,0.00,,,0.00,Wunderground v.1.15,2013-11-04 11:00:00,
2013-11-04 07:10:00,81.1,73.2,29.85,East,99,6.0,6.0,77,0.00,,,0.00,Wunderground v.1.15,2013-11-04 11:10:00,
2013-11-04 07:20:00,81.8,73.9,29.85,East,90,6.0,6.0,77,0.00,,,0.00,Wunderground v.1.15,2013-11-04 11:20:00,
2013-11-04 07:30:00,81.4,73.9,29.85,East,96,6.0,6.0,78,0.00,,,0.00,Wunderground v.1.15,2013-11-04 11:30:00,
2013-11-04 07:40:00,81.2,74.1,29.86,ESE,119,5.0,5.0,79,0.00,,,0.00,Wunderground v.1.15,2013-11-04 11:40:00,
2013-11-04 07:50:00,81.2,74.4,29.86,ENE,75,5.0,7.0,80,0.00,,,0.00,Wunderground v.1.15,2013-11-04 11:50:00,
2013-11-04 08:00:00,81.4,74.6,29.86,East,86,5.0,9.0,80,0.00,,,0.00,Wunderground v.1.15,2013-11-04 12:00:00,
2013-11-04 08:10:00,81.6,74.8,29.87,SE,125,7.0,7.0,80,0.00,,,0.00,Wunderground v.1.15,2013-11-04 12:10:00,
2013-11-04 08:20:00,81.8,75.4,29.87,East,93,7.0,7.0,81,0.00,,,0.00,Wunderground v.1.15,2013-11-04 12:20:00,
2013-11-04 08:30:00,82.0,75.2,29.87,East,97,6.0,6.0,80,0.00,,,0.00,Wunderground v.1.15,2013-11-04 12:30:00,
2013-11-04 08:40:00,82.4,75.6,29.87,East,97,6.0,14.0,80,0.00,,,0.00,Wunderground v.1.15,2013-11-04 12:40:00,
2013-11-04 08:50:00,82.4,75.6,29.88,East,100,7.0,13.0,80,0.00,,,0.00,Wunderground v.1.15,2013-11-04 12:50:00,
2013-11-04 09:00:00,83.4,76.2,29.88,SE,125,7.0,13.0,79,0.00,,,0.00,Wunderground v.1.15,2013-11-04 13:00:00,
2013-11-04 09:10:00,83.2,76.0,29.89,East,96,7.0,11.0,79,0.00,,,0.00,Wunderground v.1.15,2013-11-04 13:10:00,
2013-11-04 09:20:00,83.8,76.2,29.89,East,92,8.0,8.0,78,0.00,,,0.00,Wunderground v.1.15,2013-11-04 13:20:00,
2013-11-04 09:30:00,83.2,75.6,29.89,East,86,7.0,13.0,78,0.00,,,0.00,Wunderground v.1.15,2013-11-04 13:30:00,
2013-11-04 09:50:00,84.3,75.1,29.90,ESE,115,8.0,8.0,74,0.00,,,0.00,Wunderground v.1.15,2013-11-04 13:50:00,
2013-11-04 10:00:00,85.1,75.9,29.90,ESE,113,7.0,7.0,74,0.00,,,0.00,Wunderground v.1.15,2013-11-04 14:00:00,
2013-11-04 10:10:00,85.3,76.1,29.89,ESE,106,8.0,11.0,74,0.00,,,0.00,Wunderground v.1.15,2013-11-04 14:10:00,
2013-11-04 10:20:00,85.7,76.0,29.89,SE,124,8.0,8.0,73,0.00,,,0.00,Wunderground v.1.15,2013-11-04 14:20:00,
2013-11-04 10:30:00,85.9,75.0,29.89,SE,130,8.0,8.0,70,0.00,,,0.00,Wunderground v.1.15,2013-11-04 14:30:00,
2013-11-04 10:40:00,86.5,75.1,29.89,ESE,103,7.0,12.0,69,0.00,,,0.00,Wunderground v.1.15,2013-11-04 14:40:00,
2013-11-04 10:50:00,86.5,75.1,29.89,East,97,9.0,9.0,69,0.00,,,0.00,Wunderground v.1.15,2013-11-04 14:50:00,
2013-11-04 11:00:00,86.5,75.5,29.89,SE,137,7.0,7.0,70,0.00,,,0.00,Wunderground v.1.15,2013-11-04 15:00:00,
2013-11-04 11:10:00,86.5,75.5,29.88,SE,126,7.0,9.0,70,0.00,,,0.00,Wunderground v.1.15,2013-11-04 15:10:00,